Regional Weather Roundup
Issued by NWS Newport/Morehead, NC

Current Version | Previous Version | Text Only | Print | Product List | Glossary On
Versions: 1 2 3 4 5 6 7 8 9 10 11 12 13 14 15 16 17 18 19 20 21 22 23 24 25 26 27 28 29 30 31 32 33 34 35 36 37 38 39 40 41 42 43 44 45 46 47 48 49 50
000
ASUS42 KMHX 010510
RWRMHX
WEATHER ROUNDUP FOR EASTERN NORTH CAROLINA
NATIONAL WEATHER SERVICE NEWPORT/MOREHEAD CITY NC
100 AM EDT FRI AUG 01 2014

NOTE: "FAIR" INDICATES FEW OR NO CLOUDS BELOW 12,000 FEET
WITH NO SIGNIFICANT WEATHER AND/OR OBSTRUCTIONS TO VISIBILITY

NCZ015>017-031-032-045>047-102-103-010600-
NORTH COAST

CITY           SKY/WX    TMP DP  RH WIND       PRES   REMARKS
EDENTON        CLOUDY    75  64  70 SE6       30.16S
ELIZABETH CITY CLOUDY    73  66  78 CALM      30.17S
KITTY HAWK     CLOUDY    76  66  71 E5        30.16S
MANTEO         NOT AVBL

$$

NCZ045>047-081-094-103-104-010600-
CENTRAL COAST

CITY           SKY/WX    TMP DP  RH WIND       PRES   REMARKS
FRISCO         CLOUDY    79  66  64 E12       30.15F
SWANQUARTER      N/A     73 N/A N/A E3        30.12S

$$

NCZ095-097-098-100-101-010600-
SOUTHERN COAST

CITY           SKY/WX    TMP DP  RH WIND       PRES   REMARKS
BEAUFORT       CLOUDY    80  68  66 E9        30.13F
CEDAR ISLAND     N/A     79 N/A N/A E13       30.18S
JACKSONVILLE   CLOUDY    76  69  79 E7        30.12F
NEWPORT        NOT AVBL
PINEY ISLAND   CLOUDY    81  69  67 E12       30.14F
WILMINGTON     LGT RAIN  79  72  79 E10       30.09F


$$

NCZ011>013-027>030-043-044-078>080-089-090>093-098-010600-
COASTAL PLAIN

CITY           SKY/WX    TMP DP  RH WIND       PRES   REMARKS
AHOSKIE        CLOUDY    71  65  83 CALM      30.17S
CLINTON        CLOUDY    74  70  86 CALM      30.13S
ELIZABETHTOWN  LGT RAIN  73  70  88 E3        30.11S
GOLDSBORO      NOT AVBL
GREENVILLE     CLOUDY    72  68  88 CALM      30.16F
HAVELOCK       CLOUDY    73  69  87 CALM      30.15S
KENANSVILLE    CLOUDY    73  67  81 E3        30.13F
KINSTON        CLOUDY    73  67  82 NE3       30.15F
NEW BERN       CLOUDY    76  69  79 CALM      30.15F
RICHLANDS      CLOUDY    73  66  78 E7        30.13F
ROANOKE RAPIDS NOT AVBL
ROCKY MOUNT    CLOUDY    71  68  90 CALM      30.16S
WASHINGTON     CLOUDY    70  66  85 CALM      30.16S
WHITEVILLE     LGT RAIN  73  70  93 NE6       30.07F

$$

AMZ130-135-150-152-154-156-158-170-250-252-270-ANZ085-086-088-633-658-670-010600-
MARINE OBSERVATIONS

STATION/POSITION TIME  TEMP    WIND        PRES    WAVE   SWELL
                       AIR SEA DIR/SP/G            HT/PER HT/PER
                 (UTC) (F)     (DEG/KT/KT) (MB)    (FT/S) (FT/S)
CHESAPEAKE LIGHT NOT AVBL
BUOY 44014       0500   77 78  110/ 10/ 12 1021.3    2/ 7   2/ 7
DUCK             0500   77 77  120/ 15/ 16 1020.5
2E DUCK          0400                        N/A     3/ 7
OREGON INLET     0500   77 79  110/  7/ 10 1021.2
BUOY 44095       0500      78                N/A     3/ 6
20E OREGON INLET NOT AVBL
HATTERAS CG      0500   80 80  110/  7/ 13 1021.5
DIAMOND BUOY     0500          VRB 14/ 17  1020.7    4/ 6   2/ 7
CAPE LOOKOUT     0400   80     100/ 17/ 18 1020.6
BEAUFORT LAB     0500   80 82  100/  8/ 12 1019.8
30 SE NEW RIVER  0400   81 81   90/ 17/ 21 1019.7
5 SE WRIGHTSVILL 0400   78 81  100/ 16/ 19   N/A
BUOY 41002       0423   81 81  160/ 10/ 12 1019.9    4/ 7   3/ 7
BUOY 41004       0500   83 83  150/ 10/ 14 1015.9    4/ 6   3/ 6

$$



USA.gov is the U.S. government's official web portal to all federal, state and local government web resources and services.